Lapse_Rate
5.7 5.5 5.5 5.4 5.5 5.5 5.6 5.3 4.9 4.9 4.9 4.8 5.1 5.2 5.2 5.4 5.4 5.3 5.4 5.4 5.6 5.6 5.5 5.7 5.7 5.6 5.8 5.9 5.9 5.8 5.8 5.9 5.9 5.9 5.9 6.0 6.2 6.1 6.1 6.1 6.0 5.9 6.0
5.9 5.7 5.6 5.5 5.6 5.5 5.5 5.3 4.9 5.0 5.0 5.1 4.9 5.1 5.2 5.4 5.4 5.6 5.6 5.7 5.6 5.5 5.7 5.7 5.7 5.8 5.9 5.8 5.9 5.9 6.2 6.2 6.3 5.9 6.0 6.1 6.1 6.1 6.0 6.1 6.1 6.1 6.1
5.7 5.7 5.7 5.6 5.6 5.6 5.4 5.5 4.9 5.3 5.2 5.2 5.3 5.3 5.7 5.8 5.7 5.8 5.9 5.8 5.7 5.8 5.8 5.9 5.9 5.9 6.0 6.0 6.0 6.2 6.2 6.2 6.1 6.2 6.1 6.0 6.0 6.2 6.1 6.1 6.1 6.0 6.2
5.6 5.8 5.7 5.7 5.7 5.8 5.8 5.5 5.6 5.4 5.3 5.4 5.4 5.5 5.7 5.7 5.8 6.0 6.0 6.0 6.1 5.9 5.9 5.9 5.9 6.0 6.0 6.0 6.3 6.4 6.5 6.1 6.0 6.1 6.2 6.3 6.1 6.1 6.1 6.0 5.9 6.0 6.2
5.6 5.8 5.8 5.6 5.5 5.7 5.7 5.6 5.8 5.7 5.6 5.5 5.6 5.8 5.8 5.9 6.0 6.2 6.3 6.2 5.9 6.0 5.9 6.0 6.1 6.0 6.0 6.0 6.1 6.1 6.2 6.2 6.1 6.1 6.0 6.3 6.1 6.3 6.4 6.0 5.8 5.9 6.0
5.9 6.0 5.8 5.5 5.3 5.5 5.7 5.6 5.9 5.8 5.8 5.7 5.8 5.9 5.8 6.0 6.2 6.3 6.2 6.0 5.9 5.9 5.8 5.9 5.9 5.9 6.0 5.9 6.0 6.1 6.1 6.2 6.3 6.2 6.2 6.1 5.9 6.1 6.1 6.2 6.1 6.1 6.0
6.2 6.1 5.7 5.1 4.9 5.3 5.5 5.7 5.8 5.8 5.8 5.6 5.8 6.0 6.0 6.3 6.2 6.2 6.1 5.8 5.7 5.9 5.9 6.0 5.9 5.8 5.7 6.0 6.2 6.0 6.0 5.9 5.9 6.1 6.1 6.0 5.9 5.9 5.9 5.8 6.0 6.1 6.2
6.1 6.0 5.8 5.5 5.3 5.7 5.7 5.7 5.7 5.8 5.8 5.8 5.9 5.8 6.1 6.2 6.2 6.2 6.1 5.9 5.9 6.1 6.1 6.1 5.9 5.9 6.0 6.1 6.1 5.9 6.0 6.0 5.8 5.9 6.0 5.8 5.8 6.0 5.9 6.0 5.9 6.0 6.2
6.2 6.0 5.8 5.8 5.9 6.0 6.0 6.0 5.9 5.9 6.0 5.9 5.9 5.9 6.1 6.0 6.0 6.1 5.9 5.9 6.0 5.9 6.1 5.9 5.9 5.9 6.1 6.0 6.2 6.4 6.1 6.3 6.3 6.3 6.1 6.2 5.9 5.9 6.1 6.2 6.1 6.1 5.9
6.1 6.0 5.8 5.8 6.1 6.1 6.1 6.1 6.0 6.0 5.9 5.9 6.0 6.1 6.0 6.0 5.9 6.0 5.8 5.8 5.8 5.7 5.6 5.6 5.7 5.6 5.8 6.0 6.4 6.3 6.0 6.2 6.3 6.4 6.4 6.3 6.1 6.1 6.1 6.2 6.2 6.3 6.2
6.2 5.8 5.7 5.7 5.9 5.9 5.9 5.9 6.0 6.0 6.0 6.1 6.1 6.1 6.0 5.9 5.7 5.7 5.9 5.8 5.7 5.6 5.6 5.5 5.5 5.5 5.6 5.9 5.7 5.7 5.5 5.8 6.0 6.0 6.1 6.5 6.3 6.3 6.3 6.1 6.2 6.4 6.3
6.0 5.9 5.8 5.8 5.8 5.9 5.9 5.8 6.1 6.2 6.1 6.1 6.1 5.9 5.9 5.9 5.8 5.8 5.7 5.8 5.7 5.4 5.4 5.3 5.3 5.4 5.5 5.3 5.1 5.2 5.4 5.5 5.6 5.6 6.0 6.3 6.3 6.3 6.4 6.4 6.4 6.4 6.5
5.9 6.1 6.0 5.8 5.8 6.0 5.9 5.9 6.1 6.2 6.1 6.2 6.1 6.0 5.9 5.7 5.6 5.7 5.7 5.7 5.6 5.4 5.4 5.2 5.2 5.2 5.2 5.3 4.9 5.0 5.1 5.2 5.4 5.3 5.7 5.8 5.9 5.9 6.1 6.5 6.5 6.7 6.3
6.0 6.1 6.2 6.0 5.9 6.1 6.0 5.9 5.9 6.1 5.9 6.0 6.0 5.8 5.7 5.7 5.7 5.6 5.5 5.6 5.6 5.3 5.4 5.1 4.9 5.2 5.2 5.0 5.2 5.5 5.2 5.2 5.4 5.3 5.3 5.3 5.3 5.7 6.0 6.5 6.4 6.3 6.7
6.3 6.2 6.1 5.8 5.8 6.1 6.3 5.9 5.9 6.0 5.8 5.9 5.8 5.8 5.7 5.7 5.9 5.3 5.5 5.6 5.7 5.5 5.3 5.0 5.1 5.3 5.1 5.1 5.0 5.0 5.1 5.1 5.1 5.3 5.0 4.9 4.9 5.0 5.5 6.0 6.3 6.4 6.5
6.2 6.1 6.1 6.2 6.1 6.2 6.4 6.0 5.7 5.9 5.7 5.8 5.8 5.6 5.6 5.5 5.5 5.3 5.4 5.6 5.6 5.5 5.6 5.1 5.2 5.0 5.3 5.3 5.0 4.7 4.8 4.8 4.7 4.8 4.6 4.9 4.7 4.8 4.8 5.4 5.7 6.0 6.5
6.2 5.8 6.2 6.4 6.1 6.1 6.2 6.2 6.4 6.5 6.1 6.0 6.0 5.9 5.8 5.6 5.6 5.6 5.6 5.6 5.5 5.7 5.8 5.5 5.5 5.3 5.2 5.4 5.4 5.2 5.0 4.8 4.9 4.9 4.8 5.1 5.1 4.9 5.0 5.0 5.2 5.4 5.9
6.0 6.1 6.0 6.1 6.0 5.9 6.1 6.2 6.3 6.3 6.5 5.9 6.0 6.0 5.8 5.7 5.7 5.7 6.0 6.1 5.9 5.4 5.5 5.7 5.5 5.0 5.0 5.2 5.4 5.6 5.5 5.2 5.3 5.4 5.3 5.2 5.1 5.2 4.9 5.0 4.9 5.1 5.2
6.1 6.2 6.1 6.0 6.0 5.9 5.9 6.0 6.2 6.0 6.2 6.0 6.0 5.8 5.9 5.9 5.9 5.9 5.9 5.9 6.1 5.9 5.7 5.5 5.4 5.3 5.4 5.4 5.3 5.4 5.6 5.3 5.1 5.2 5.1 5.3 5.3 5.1 5.1 5.1 4.8 4.9 4.8
6.4 6.4 6.3 6.1 6.0 6.0 6.2 6.2 6.5 6.4 6.3 6.5 6.3 6.3 6.0 5.6 5.7 5.6 5.6 5.7 5.8 6.0 5.8 5.5 5.4 5.5 5.4 5.4 5.5 5.5 5.5 5.5 5.3 5.4 5.3 5.4 5.4 5.0 5.0 5.0 4.8 4.9 5.0
7.0 6.7 6.6 6.4 6.2 6.3 6.4 6.3 6.4 6.3 6.2 6.2 6.0 5.9 5.6 5.7 5.9 5.6 5.5 5.6 5.7 5.7 5.7 5.8 5.7 5.8 5.6 5.5 5.5 5.6 5.4 5.3 5.1 5.2 5.4 5.3 5.3 5.1 5.1 5.0 5.0 4.9 5.1
7.3 7.1 7.2 6.9 6.6 6.5 6.5 6.5 6.6 6.6 6.4 6.3 6.3 6.1 6.0 5.9 5.8 5.8 5.8 5.8 5.6 5.6 5.6 5.7 5.9 5.8 5.8 5.7 5.5 5.6 5.4 5.4 5.4 5.4 5.3 5.4 5.4 5.3 5.3 5.1 5.0 5.0 5.1
7.5 7.4 7.3 7.3 7.1 6.9 6.8 6.7 6.5 6.4 6.5 6.5 6.4 6.4 6.3 6.1 5.9 5.8 5.8 6.0 6.0 5.8 5.7 5.5 5.6 5.7 5.8 5.7 5.6 5.6 5.6 5.5 5.4 5.4 5.5 5.8 5.6 5.4 5.4 5.3 5.2 5.3 5.3
7.8 7.6 7.4 7.2 7.2 7.2 7.1 6.9 6.9 6.9 6.8 6.5 6.2 6.1 6.3 6.2 6.0 5.9 6.0 6.0 6.0 6.0 5.8 5.8 5.9 6.0 5.9 5.8 5.6 5.7 5.6 5.6 5.6 5.7 5.6 5.5 5.5 5.6 5.7 5.6 5.5 5.6 5.4
8.5 8.1 7.7 7.4 7.2 7.3 7.3 7.3 7.2 7.2 7.2 7.1 6.6 6.4 6.5 6.5 6.6 6.5 6.4 6.3 5.9 5.9 6.0 5.8 5.7 5.9 6.0 5.9 5.8 5.8 5.7 5.7 5.7 5.9 5.7 5.5 5.8 5.8 5.7 5.7 5.7 5.7 5.6
8.8 8.6 8.3 7.9 7.6 7.4 7.3 7.3 7.2 7.2 7.1 7.1 7.1 6.9 6.8 6.8 6.6 6.4 6.6 6.3 6.3 6.0 5.8 5.9 5.7 5.6 6.0 6.1 5.9 5.8 5.8 5.8 5.9 5.9 5.6 5.7 5.8 5.6 5.7 5.9 5.8 5.9 6.2
Wind_Speed
6 12 11 12 15 14 14 13 11 11 11 11 13 15 17 18 18 16 14 14 15 15 14 15 16 17 15 14 14 16 18 19 19 20 19 16 15 16 18 17 16 16 16
13 13 13 16 16 14 14 12 10 12 10 12 13 14 16 16 16 14 13 14 15 14 13 14 15 15 14 14 14 15 16 17 19 18 18 15 13 14 16 15 15 16 15
11 15 14 16 16 16 15 14 12 12 12 14 14 14 14 15 15 14 16 17 16 14 14 14 14 14 14 14 15 14 14 14 16 16 17 15 17 16 15 14 14 15 16
16 15 14 16 15 16 16 15 14 12 13 14 14 15 15 15 15 15 16 15 14 14 14 13 13 13 13 13 12 12 11 12 16 11 8 12 14 13 14 13 13 10 15
14 15 16 16 16 17 16 13 13 13 13 14 14 14 16 15 16 16 15 15 15 14 14 12 12 11 12 12 11 10 10 6 6 11 13 16 14 12 12 12 11 10 13
13 15 17 17 16 16 15 14 13 12 13 15 14 15 16 15 15 15 15 16 15 14 13 12 12 11 12 11 8 5 2 2 9 15 13 13 11 13 11 8 12 12 13
14 15 17 17 15 15 14 14 13 12 13 14 14 14 15 15 14 15 15 14 14 13 13 12 11 10 9 8 7 8 8 10 15 15 13 14 13 11 9 10 10 10 12
13 16 15 16 15 14 13 13 12 11 12 13 13 13 15 14 15 14 13 14 13 12 12 12 10 9 8 6 9 11 13 13 12 12 13 12 11 11 11 10 8 9 9
16 14 14 14 15 14 13 12 12 11 11 12 12 13 13 15 15 14 12 14 12 11 10 10 9 7 6 7 11 12 12 10 13 13 10 13 12 10 9 9 9 9 8
11 13 12 14 14 13 13 16 14 13 11 13 12 13 14 14 14 13 11 10 11 10 10 8 7 6 6 9 13 12 12 12 9 10 10 12 12 10 9 9 8 8 8
10 8 12 13 14 14 14 13 15 14 13 13 12 12 11 11 13 12 9 10 10 10 8 8 7 5 7 12 10 6 8 10 10 7 9 10 11 10 9 9 7 6 7
12 10 7 11 13 15 12 13 12 12 11 11 10 10 10 10 12 9 9 9 10 8 8 7 7 6 11 14 8 7 5 8 6 10 11 10 10 10 9 9 7 8 7
14 10 11 10 14 13 11 13 12 11 10 10 11 11 9 7 8 11 10 9 10 8 7 9 10 7 13 12 9 7 6 4 5 7 9 12 10 11 10 9 7 7 8
15 14 13 14 13 11 12 11 12 10 12 11 13 14 11 9 10 10 10 11 10 10 7 8 6 5 8 12 11 11 5 3 5 8 10 9 8 8 8 9 6 7 6
15 14 15 13 12 12 12 11 10 10 12 13 13 15 13 11 7 11 10 10 11 9 10 8 6 9 8 9 10 10 8 10 9 8 10 10 9 8 7 7 7 5 5
15 15 15 13 15 16 10 10 10 11 11 13 14 16 18 17 10 10 7 10 11 14 11 11 9 8 6 10 6 10 9 13 15 12 8 6 12 14 10 8 7 7 6
14 13 16 15 13 10 9 12 10 12 13 11 14 20 17 18 14 12 7 7 9 17 11 13 9 9 5 7 4 8 9 8 11 16 13 12 14 10 11 8 7 8 8
14 14 12 13 10 10 8 8 9 12 11 11 11 12 17 15 13 10 5 6 7 10 13 8 5 4 3 3 4 4 6 8 8 12 14 14 14 13 11 11 10 9 9
16 13 9 9 9 8 8 8 8 12 9 11 14 15 15 13 14 9 4 3 9 8 6 4 3 3 3 2 2 3 3 3 7 9 11 12 17 16 18 13 12 14 12
14 13 10 9 9 8 5 4 3 4 5 11 12 13 14 14 12 8 4 1 6 4 3 4 4 4 3 4 4 4 4 4 7 7 10 13 14 16 19 20 17 15 15
13 10 10 9 8 6 2 3 2 2 3 3 9 16 17 15 12 9 6 4 4 3 5 5 3 5 3 2 1 3 3 6 5 5 9 10 11 13 15 16 16 16 17
15 13 13 13 10 8 4 3 3 3 3 6 10 11 17 16 15 12 8 4 5 3 3 4 4 2 3 4 3 1 3 2 3 6 4 5 8 10 12 16 14 14 16
16 14 12 14 13 10 8 3 2 2 2 2 3 4 11 17 16 15 13 9 6 5 4 5 4 5 3 3 5 3 1 3 2 0 4 5 7 6 10 13 14 15 16
17 15 13 13 14 10 10 6 5 4 4 4 4 7 7 14 14 16 15 12 8 5 5 5 5 4 4 4 2 5 3 2 1 4 2 4 6 7 7 9 12 14 15
17 16 14 13 12 10 10 8 6 5 4 3 3 5 6 6 13 15 15 12 6 5 6 6 5 6 5 4 4 2 3 3 4 4 4 4 2 5 6 6 11 13 15
16 15 13 13 12 11 11 8 8 8 7 4 3 4 5 4 7 11 13 11 10 7 7 6 7 7 7 6 4 4 4 3 3 3 4 3 4 4 6 7 8 13 15
Wind_Direction
177 166 154 140 139 134 131 123 115 101 89 81 85 84 89 87 94 96 97 105 105 99 97 96 98 97 101 98 101 100 105 106 104 97 97 100 103 108 102 106 106 110 109
149 158 147 138 141 138 131 128 119 107 105 96 87 92 95 98 98 97 100 104 111 103 104 104 105 102 106 106 105 105 109 109 100 102 103 97 109 107 110 111 111 113 109
144 146 142 143 143 137 136 135 125 121 112 108 108 105 106 106 106 102 94 102 107 110 108 107 111 110 109 103 103 106 104 98 96 94 101 97 90 116 109 103 104 108 112
141 141 145 142 143 136 138 134 136 117 114 110 109 111 110 110 109 105 102 108 112 112 117 112 111 106 101 99 103 99 102 112 112 89 93 92 100 108 110 108 110 108 109
136 139 146 144 142 138 140 137 127 120 118 117 111 108 106 115 113 111 110 113 122 122 114 112 104 100 95 94 88 86 93 104 73 104 109 109 105 107 114 121 122 108 103
135 144 145 147 145 143 142 141 131 124 123 115 114 111 112 115 118 118 118 120 116 115 112 107 104 103 101 97 85 65 28 139 94 109 102 95 98 118 116 125 120 116 114
140 144 145 147 149 149 149 148 139 126 119 119 115 118 114 116 117 117 115 120 122 121 115 114 112 107 101 95 60 41 28 132 121 114 109 104 102 100 119 107 121 121 125
140 142 146 144 147 150 154 150 140 126 123 121 123 123 125 128 126 123 128 121 121 120 122 122 114 117 113 102 67 40 92 113 112 112 106 106 110 114 117 115 117 121 132
139 139 139 147 149 149 155 154 147 136 130 125 132 131 137 134 132 131 138 132 131 127 125 126 127 127 111 76 64 65 87 101 115 115 121 119 120 123 121 125 120 134 128
144 146 145 150 143 144 137 144 147 146 142 141 143 145 141 137 138 138 138 142 143 140 141 144 141 127 110 86 67 70 95 103 114 127 128 132 133 137 130 122 121 133 134
154 156 157 146 145 145 147 151 150 152 153 156 150 155 144 141 132 135 155 161 155 147 154 154 150 139 106 80 73 83 122 98 85 124 141 150 143 136 130 131 130 149 138
163 168 166 156 155 156 160 164 170 166 161 162 164 159 159 153 151 156 160 158 153 153 150 151 154 143 80 91 96 85 84 148 140 153 154 157 145 143 143 137 140 141 151
171 166 169 168 166 166 161 167 178 178 177 179 177 176 180 173 170 165 172 171 169 165 156 168 180 155 110 132 145 101 117 138 171 169 167 165 162 156 153 150 153 147 152
173 170 171 174 168 179 161 173 182 176 184 189 190 191 197 184 175 178 189 188 187 179 179 190 179 130 142 157 173 170 184 166 161 172 176 186 173 175 166 154 157 157 147
173 173 177 175 172 171 169 181 182 192 186 194 200 197 196 173 174 182 206 204 203 191 187 191 198 161 152 180 187 198 190 214 225 194 185 175 179 183 187 175 166 171 170
172 171 175 181 180 167 178 189 183 197 203 192 186 200 195 191 189 182 213 219 210 206 196 195 167 152 163 168 212 222 212 197 212 212 185 181 195 178 184 195 186 183 183
174 162 174 180 171 164 179 190 177 186 187 191 188 182 180 188 201 184 199 213 221 204 192 167 158 154 167 179 185 219 239 218 210 212 202 198 214 207 184 190 207 193 195
157 163 161 160 160 159 170 167 177 185 179 195 195 187 189 196 200 201 189 205 202 170 175 156 165 160 196 181 186 205 214 228 223 217 224 217 217 211 208 210 213 214 204
163 162 158 147 157 169 166 146 158 193 183 194 186 192 190 191 186 180 185 237 191 176 160 170 193 178 187 128 288 261 226 213 227 224 230 218 219 218 226 229 224 223 214
166 164 160 163 166 170 162 146 145 151 176 189 182 196 189 195 193 183 186 29 172 149 168 181 178 197 184 184 193 235 238 241 228 228 227 223 217 221 230 235 236 238 225
167 161 169 162 179 151 151 155 129 179 168 196 186 198 198 205 203 185 197 179 169 163 184 186 163 181 207 204 31 286 258 231 231 235 229 225 230 224 227 232 230 231 245
174 178 173 176 172 171 177 170 153 161 190 192 197 207 197 201 199 195 187 202 212 177 220 213 189 181 212 183 170 56 309 328 260 227 210 218 229 218 225 231 230 226 227
179 177 174 179 175 176 180 157 131 92 93 121 199 191 204 207 199 201 200 197 196 186 208 215 206 196 215 225 215 165 242 241 308 266 215 216 215 215 221 223 226 228 228
184 183 174 173 176 178 177 179 178 177 185 200 186 203 207 210 205 204 205 206 203 195 205 212 200 200 161 212 230 234 217 161 249 315 239 236 215 221 224 225 233 232 228
181 183 179 176 179 176 181 186 190 202 203 216 200 191 206 213 211 209 210 204 204 209 211 207 199 195 195 182 193 198 214 210 219 227 276 285 263 234 225 223 217 229 225
183 183 179 174 185 181 185 190 194 208 212 199 204 202 212 211 221 221 218 211 205 215 213 209 211 206 202 199 195 204 185 186 201 198 234 310 271 258 221 221 220 221 222